This demonstration page uses our WeatherBlox Daily Observations layout. Learn more.

Left ArrowRight Arrow

39.51506, -84.39828

Hourly Observations for October 23, 2020

Temp ( °F °C ) Dew Point ( °F °C ) Humidity (%) Winds ( mph kmh ) Pressure ( in mb ) Visibility ( mi km ) Precip ( " mm )
12:15 am 00:15 Mostly Cloudy with Mist and Fog 57 14 N/A N/A Calm 30.06 1018 1.75 2.816345 0 0
12:35 am 00:35 Clear with Mist and Fog 57 14 N/A N/A Calm 30.06 1018 3.5 5.63269 0 0
12:55 am 00:55 Clear with Mist and Fog 57 14 N/A N/A Calm 30.06 1018 2 3.21868 0 0
1:15 am 01:15 Hazy 57 14 N/A N/A Calm 30.05 1018 7 11.26538 0 0
1:35 am 01:35 Clear with Mist and Fog 55 13 N/A N/A Calm 30.05 1018 2 3.21868 0 0
1:55 am 01:55 Hazy 55 13 N/A N/A Calm 30.04 1017 5 8.0467 0 0
2:15 am 02:15 Hazy 55 13 N/A N/A Calm 30.04 1017 7 11.26538 0 0
2:35 am 02:35 Hazy 55 13 N/A N/A Calm 30.04 1017 4 6.43736 0 0
2:55 am 02:55 Hazy 55 13 N/A N/A Calm 30.04 1017 5 8.0467 0 0
3:15 am 03:15 Mostly Cloudy with Mist and Fog 54 12 N/A N/A Calm 30.04 1017 1 1.60934 0 0
3:35 am 03:35 Mostly Cloudy with Fog 54 12 N/A N/A Calm 30.04 1017 0.25 0.402335 0 0
3:55 am 03:55 Mostly Cloudy with Mist and Fog 54 12 N/A N/A Calm 30.04 1017 1.25 2.011675 0 0
4:15 am 04:15 Hazy 54 12 N/A N/A Calm 30.04 1017 5 8.0467 0 0
4:35 am 04:35 Mostly Cloudy with Mist and Fog 54 12 N/A N/A Calm 30.04 1017 0.75 1.207005 0 0
4:55 am 04:55 Hazy 54 12 N/A N/A Calm 30.04 1017 5 8.0467 0 0
5:15 am 05:15 Mostly Cloudy with Mist and Fog 54 12 N/A N/A Calm 30.04 1017 1.5 2.41401 0 0
5:35 am 05:35 Mostly Cloudy with Mist and Fog 54 12 N/A N/A Calm 30.05 1018 0.75 1.207005 0 0
5:55 am 05:55 Mostly Cloudy with Mist and Fog 54 12 N/A N/A Calm 30.05 1018 1.25 2.011675 0 0
6:15 am 06:15 Clear with Mist and Fog 54 12 N/A N/A Calm 30.06 1018 2 3.21868 0 0
6:35 am 06:35 Mostly Cloudy with Mist and Fog 54 12 N/A N/A Calm 30.06 1018 1 1.60934 0 0
6:55 am 06:55 Clear with Mist and Fog 54 12 N/A N/A Calm 30.06 1018 2.5 4.02335 0 0
7:15 am 07:15 Mostly Cloudy with Mist and Fog 54 12 N/A N/A Calm 30.06 1018 0.75 1.207005 0 0
7:35 am 07:35 Cloudy with Mist and Fog 54 12 N/A N/A Calm 30.06 1018 1 1.60934 0 0
7:55 am 07:55 Cloudy 54 12 N/A N/A Calm 30.06 1018 10 16.0934 0 0
8:15 am 08:15 Cloudy 55 13 N/A N/A Calm 30.06 1018 10 16.0934 0 0
8:35 am 08:35 Mostly Cloudy 57 14 N/A N/A Calm 30.06 1018 10 16.0934 0 0
8:55 am 08:55 Mostly Cloudy 59 15 N/A N/A Calm 30.06 1018 10 16.0934 0 0
9:15 am 09:15 Hazy 63 17 N/A N/A SW 6 9 30.05 1018 7 11.26538 0 0
9:35 am 09:35 Mostly Cloudy 65 18.6 62 16.8 89 89 SW 6 9 30.05 1018 10 16.0934 0 0
9:55 am 09:55 Cloudy 66 18.8 62 16.7 88 88 SW 7 11 30.05 1018 10 16.0934 0 0
10:15 am 10:15 Mostly Cloudy 67 19.3 62 16.9 86 86 SW 9 15 30.05 1017 10 16.0934 0 0
10:35 am 10:35 Mostly Cloudy 68 19.8 63 17 84 84 SW 9 15 30.04 1017 10 16.0934 0 0
10:55 am 10:55 Mostly Cloudy 69 20.5 63 17.2 81 81 SW 9 15 30.03 1017 10 16.0934 0 0
11:15 am 11:15 Mostly Cloudy 70 21.1 64 17.6 81 81 SW 14 22 30.02 1017 10 16.0934 0 0
11:35 am 11:35 Partly Cloudy 73 22.5 64 17.8 75 75 WSW 14 22 30.02 1017 10 16.0934 0 0
11:55 am 11:55 Partly Cloudy 74 23.2 64 18 73 73 WSW 17 28 30.01 1016 10 16.0934 0 0
12:15 pm 12:15 Partly Cloudy 74 23.3 64 18 72 72 WSW 17 28 30.01 1016 10 16.0934 0 0
12:35 pm 12:35 Partly Cloudy 76 24.6 65 18.6 69 69 WSW 13 20 29.99 1016 10 16.0934 0 0
12:55 pm 12:55 Partly Cloudy 77 25.1 66 18.7 68 68 WSW 22 35 29.99 1016 10 16.0934 0 0
1:15 pm 13:15 Partly Cloudy 78 25.6 66 18.9 67 67 WSW 20 31 29.98 1015 10 16.0934 0 0
1:35 pm 13:35 Mostly Cloudy 77 24.8 66 18.7 69 69 WSW 15 24 29.97 1015 10 16.0934 0 0
1:55 pm 13:55 Sunny 78 25.5 66 18.9 67 67 WSW 18 30 29.95 1014 10 16.0934 0 0
2:15 pm 14:15 Partly Cloudy with Nearby Thunderstorms 78 25.8 65 18.6 65 65 WSW 20 31 29.96 1015 10 16.0934 0 0
2:35 pm 14:35 Mostly Cloudy 77 24.8 66 18.7 69 69 WSW 14 22 29.95 1014 10 16.0934 0 0
2:55 pm 14:55 Partly Cloudy 76 24.6 66 18.7 70 70 WSW 15 24 29.94 1014 10 16.0934 0 0
3:15 pm 15:15 Partly Cloudy 75 24 65 18.6 72 72 WSW 13 20 29.94 1014 10 16.0934 0 0
3:35 pm 15:35 Mostly Cloudy with Light Rain 75 24.1 68 19.8 77 77 WSW 8 13 29.92 1013 10 16.0934 0 0
3:55 pm 15:55 Sunny 77 24.8 67 19.3 72 72 WSW 10 17 29.9 1013 10 16.0934 0 0
4:15 pm 16:15 Partly Cloudy 78 25.6 66 18.7 66 66 WSW 16 26 29.89 1012 10 16.0934 0 0
4:35 pm 16:35 Sunny 78 25.5 66 19 67 67 WSW 10 17 29.9 1013 10 16.0934 0 0
4:55 pm 16:55 Partly Cloudy 78 25.8 65 18.5 64 64 SW 16 26 29.89 1012 10 16.0934 0 0
5:15 pm 17:15 Sunny 79 25.9 65 18.4 63 63 W 12 19 29.9 1013 10 16.0934 0 0
5:35 pm 17:35 Mostly Cloudy 77 25.1 65 18.1 65 65 W 12 19 29.9 1013 10 16.0934 0 0
5:55 pm 17:55 Mostly Cloudy 76 24.4 65 18.4 69 69 WSW 9 15 29.89 1012 10 16.0934 0 0
6:15 pm 18:15 Partly Cloudy with Nearby Thunderstorms 76 24.3 65 18.3 69 69 WSW 14 22 29.89 1012 10 16.0934 0 0
6:35 pm 18:35 Cloudy with Nearby Thunderstorms 74 23.3 66 18.7 75 75 WSW 12 19 29.89 1012 10 16.0934 0 0
6:55 pm 18:55 Cloudy with Light Thunderstorms 72 22.2 66 19.1 83 83 WSW 13 20 29.91 1013 10 16.0934 0 0
7:15 pm 19:15 Cloudy with Thunderstorms 68 19.9 65 18.6 92 92 NNW 21 33 29.93 1014 7 11.26538 0.05 1.27
7:35 pm 19:35 Cloudy with Heavy Thunderstorms 64 17.8 63 17.4 98 98 NNW 21 33 29.94 1014 4 6.43736 0.2 5.08
7:55 pm 19:55 Cloudy with Heavy Thunderstorms 64 17.9 64 17.7 99 99 W 9 15 29.96 1015 5 8.0467 0.55 13.97
8:15 pm 20:15 Cloudy with Light Thunderstorms 64 17.7 64 17.6 99 99 WSW 10 17 29.96 1015 10 16.0934 0.02 0.508
8:35 pm 20:35 Cloudy with Light Rain 64 18 64 17.9 99 99 WSW 6 9 29.96 1015 10 16.0934 0.02 0.508
8:55 pm 20:55 Cloudy with Light Rain 64 18 64 18 100 100 W 9 15 29.98 1015 10 16.0934 0.02 0.508
9:15 pm 21:15 Mostly Cloudy 64 18 64 17.9 99 99 Calm 29.96 1015 10 16.0934 0 0
9:35 pm 21:35 Cloudy 61 16.2 60 15.3 94 94 N 12 19 29.98 1015 10 16.0934 0 0
9:55 pm 21:55 Cloudy 59 15.2 58 14.3 94 94 NNW 14 22 30.01 1016 10 16.0934 0 0
10:15 pm 22:15 Cloudy 58 14.2 55 12.9 92 92 N 14 22 30.03 1017 10 16.0934 0 0
10:35 pm 22:35 Cloudy 56 13.6 54 12.4 93 93 N 12 19 30.05 1018 10 16.0934 0 0
10:50 pm 22:50 Cloudy 55 13 53 11.5 91 91 N 9 15 30.06 1018 10 16.0934 0 0
11:15 pm 23:15 Cloudy with Mist and Fog 52 11.3 50 10.2 93 93 NNE 12 19 30.09 1019 5 8.0467 0 0
11:35 pm 23:35 Cloudy 51 10.8 49 9.2 90 90 NNE 9 15 30.09 1019 10 16.0934 0 0
11:55 pm 23:55 Cloudy 51 10.6 47 8.4 86 86 NNE 13 20 30.1 1019 10 16.0934 0 0

Powered by AerisWeather